WJA385 CYYZ-CYWG

Flight info

Callsign WJA385
Flight time N/A
Altitude 38000
Route URSAL4 KASED DCT PLN DCT CMX DCT GOVIT NORAK6
Aircraft B38M/M-SDE1FGHILORVWXY/HB1

Departure

Time 2026-05-06 01:51
Airport Toronto Pearson International Airport (CYYZ)

Arrival

Time N/A
Airport Winnipeg / James Armstrong Richardson International Airport (CYWG)
Time Latitude Longitude Altitude Speed Heading
2026-05-06 01:32 43.68387 -79.61911 567 ft 0 kts 290°
2026-05-06 01:42 43.68384 -79.61901 567 ft 2 kts 288°
2026-05-06 01:42 43.68379 -79.61875 573 ft 3 kts 290°
2026-05-06 01:42 43.68372 -79.61851 573 ft 3 kts 295°
2026-05-06 01:43 43.68362 -79.61826 571 ft 3 kts 301°
2026-05-06 01:43 43.68351 -79.61803 571 ft 3 kts 309°
2026-05-06 01:43 43.68338 -79.61783 572 ft 3 kts 317°
2026-05-06 01:43 43.68322 -79.61765 575 ft 3 kts 327°
2026-05-06 01:44 43.68304 -79.61752 572 ft 3 kts 337°
2026-05-06 01:44 43.68285 -79.61743 567 ft 3 kts 347°
2026-05-06 01:44 43.68265 -79.61738 569 ft 3 kts 356°
2026-05-06 01:44 43.68245 -79.61738 571 ft 3 kts
2026-05-06 01:45 43.68225 -79.61742 570 ft 3 kts 10°
2026-05-06 01:45 43.68212 -79.61745 571 ft 3 kts 12°
2026-05-06 01:45 43.68192 -79.61751 569 ft 3 kts
2026-05-06 01:45 43.68170 -79.61751 569 ft 2 kts 329°
2026-05-06 01:46 43.68167 -79.61749 569 ft 0 kts 321°
2026-05-06 01:47 43.68168 -79.61749 569 ft 0 kts 320°
2026-05-06 01:47 43.68172 -79.61760 571 ft 3 kts 292°
2026-05-06 01:48 43.68152 -79.61832 570 ft 7 kts 224°
2026-05-06 01:48 43.68105 -79.61895 569 ft 11 kts 226°
2026-05-06 01:48 43.69283 -79.63421 565 ft 182 kts
2026-05-06 01:48 43.68794 -79.63159 569 ft 386 kts 318°
2026-05-06 01:49 43.69296 -79.63435 570 ft 3 kts 357°
2026-05-06 01:49 43.69327 -79.63435 565 ft 5 kts 12°
2026-05-06 01:49 43.69369 -79.63437 563 ft 8 kts 331°
2026-05-06 01:49 43.69397 -79.63495 569 ft 7 kts 279°
2026-05-06 01:50 43.69376 -79.63560 564 ft 8 kts 228°
2026-05-06 01:50 43.69281 -79.63698 570 ft 51 kts 226°
2026-05-06 01:50 43.68849 -79.64327 571 ft 128 kts 226°
2026-05-06 01:50 43.68099 -79.65432 723 ft 176 kts 226°
2026-05-06 01:51 43.67256 -79.66665 1694 ft 167 kts 227°
2026-05-06 01:51 43.66571 -79.67898 2779 ft 167 kts 235°
2026-05-06 01:51 43.65866 -79.69290 3292 ft 187 kts 236°
2026-05-06 01:51 43.65076 -79.70856 3835 ft 210 kts 237°
2026-05-06 01:52 43.64194 -79.72605 4411 ft 233 kts 238°
2026-05-06 01:52 43.63262 -79.74545 5061 ft 250 kts 246°
2026-05-06 01:52 43.63005 -79.76875 6054 ft 243 kts 279°
2026-05-06 01:52 43.63534 -79.79100 7135 ft 249 kts 293°
2026-05-06 01:53 43.64373 -79.81187 8043 ft 253 kts 293°
2026-05-06 01:53 43.65238 -79.83315 9053 ft 255 kts 291°
2026-05-06 01:53 43.66123 -79.85449 10017 ft 257 kts 290°
2026-05-06 01:53 43.67042 -79.87647 10601 ft 273 kts 291°
2026-05-06 01:54 43.68027 -79.89980 11122 ft 288 kts 291°
2026-05-06 01:54 43.69064 -79.92414 11746 ft 299 kts 292°
2026-05-06 01:54 43.70228 -79.94856 12510 ft 311 kts 300°
2026-05-06 01:54 43.71595 -79.97185 13341 ft 314 kts 300°
2026-05-06 01:55 43.72963 -79.99564 14045 ft 318 kts 300°
2026-05-06 01:55 43.74339 -80.01978 14786 ft 320 kts 299°
2026-05-06 01:55 43.75701 -80.04387 15474 ft 324 kts 299°
2026-05-06 01:55 43.77090 -80.06851 16163 ft 327 kts 299°
2026-05-06 01:56 43.78490 -80.09343 16846 ft 329 kts 298°
2026-05-06 01:56 43.79902 -80.11858 17543 ft 332 kts 298°
2026-05-06 01:56 43.81319 -80.14385 18269 ft 332 kts 298°
2026-05-06 01:56 43.82739 -80.16921 18808 ft 336 kts 299°
2026-05-06 01:57 43.84000 -80.19612 19288 ft 329 kts 286°
2026-05-06 01:57 43.84943 -80.22501 19853 ft 331 kts 287°
2026-05-06 01:57 43.85913 -80.25423 20317 ft 335 kts 287°
2026-05-06 01:57 43.86883 -80.28373 20865 ft 338 kts 287°
2026-05-06 01:58 43.87846 -80.31314 21351 ft 341 kts 287°
2026-05-06 01:58 43.88827 -80.34319 21885 ft 344 kts 286°
2026-05-06 01:58 43.89816 -80.37355 22376 ft 347 kts 286°
2026-05-06 01:58 43.90809 -80.40407 22882 ft 350 kts 286°
2026-05-06 01:59 43.91815 -80.43506 23375 ft 353 kts 286°
2026-05-06 01:59 43.92828 -80.46624 23784 ft 356 kts 286°
2026-05-06 01:59 43.93843 -80.49756 24220 ft 357 kts 286°
2026-05-06 01:59 43.94863 -80.52905 24649 ft 359 kts 286°
2026-05-06 02:00 43.95874 -80.56031 25159 ft 358 kts 286°
2026-05-06 02:00 43.96886 -80.59164 25704 ft 357 kts 286°
2026-05-06 02:00 43.97906 -80.62326 26067 ft 360 kts 286°
2026-05-06 02:00 43.98928 -80.65499 26473 ft 361 kts 286°
2026-05-06 02:01 43.99956 -80.68693 26849 ft 363 kts 286°
2026-05-06 02:01 44.00990 -80.71909 27223 ft 365 kts 286°
2026-05-06 02:01 44.02027 -80.75139 27590 ft 367 kts 286°
2026-05-06 02:01 44.03068 -80.78387 27956 ft 369 kts 286°
2026-05-06 02:02 44.04114 -80.81652 28310 ft 371 kts 286°
2026-05-06 02:02 44.05153 -80.84900 28660 ft 373 kts 286°
2026-05-06 02:02 44.06207 -80.88203 29065 ft 374 kts 285°
2026-05-06 02:02 44.07260 -80.91502 29549 ft 373 kts 285°
2026-05-06 02:03 44.08313 -80.94806 29879 ft 375 kts 285°
2026-05-06 02:03 44.09372 -80.98131 30172 ft 377 kts 285°
2026-05-06 02:03 44.10434 -81.01473 30438 ft 378 kts 285°
2026-05-06 02:03 44.11499 -81.04828 30719 ft 380 kts 285°
2026-05-06 02:04 44.12566 -81.08193 30987 ft 381 kts 285°
2026-05-06 02:04 44.13624 -81.11533 31256 ft 383 kts 285°
2026-05-06 02:04 44.14697 -81.14929 31536 ft 384 kts 285°
2026-05-06 02:04 44.15769 -81.18323 31920 ft 382 kts 286°
2026-05-06 02:05 44.16835 -81.21704 32282 ft 381 kts 286°
2026-05-06 02:05 44.17896 -81.25071 32680 ft 379 kts 286°
2026-05-06 02:05 44.18951 -81.28425 33067 ft 378 kts 286°
2026-05-06 02:05 44.20002 -81.31768 33496 ft 375 kts 287°
2026-05-06 02:06 44.21041 -81.35080 33940 ft 371 kts 287°
2026-05-06 02:06 44.22072 -81.38371 34238 ft 370 kts 287°
2026-05-06 02:06 44.23085 -81.41607 34513 ft 369 kts 287°
2026-05-06 02:06 44.24107 -81.44875 34781 ft 367 kts 287°
2026-05-06 02:07 44.25126 -81.48143 35056 ft 366 kts 287°
2026-05-06 02:07 44.26141 -81.51397 35330 ft 366 kts 287°
2026-05-06 02:07 44.27152 -81.54642 35588 ft 365 kts 287°
2026-05-06 02:07 44.28160 -81.57884 35835 ft 364 kts 287°
2026-05-06 02:08 44.29165 -81.61120 36080 ft 363 kts 287°
2026-05-06 02:08 44.30166 -81.64346 36312 ft 362 kts 287°
2026-05-06 02:08 44.30183 -81.64398 36313 ft 362 kts 287°